{"data":{"norad_id":67159,"intl_designator":"2025-301AC","name":"KUIPER-00265","alt_names":[],"object_type":"PAYLOAD","status":"ACTIVE","operator":null,"country":"US","launch_date":"2025-12-16","launch_site_code":"AFETR","launch_vehicle":null,"mission":null,"orbit_class":"UNKNOWN","rcs_meters":null,"size_class":null,"mass_kg":null,"dimensions":null,"purposes":[],"wikipedia_slug":null,"has_3d_model":false,"image_url":null,"decayed_at":null,"tle_current":{"epoch":"2026-09-20T10:15:14.838912Z","epoch_age_seconds":112416,"freshness":"FRESH","line1":"1 67159U 25301AC  26263.42725508  .00001750  00000+0  25856-3 0  9992","line2":"2 67159  51.9068 304.5315 0000543  51.9756 308.1255 14.79931072 42323","mean_motion":14.79931072,"eccentricity":5.43e-5,"inclination_deg":51.9068,"raan_deg":304.5315,"arg_perigee_deg":51.9756,"mean_anomaly_deg":308.1255,"bstar":0.00025856,"rev_number":4232,"period_min":97.301828932746,"perigee_km":629.1611984456,"apogee_km":629.92223235409,"semimajor_km":7007.6787153998,"source":"CELESTRAK","updated_at":"2026-09-21T09:00:16.461428Z"}}}